Time,TemperatureF,DewpointF,PressureIn,WindDirection,WindDirectionDegrees,WindSpeedMPH,WindSpeedGustMPH,Humidity,HourlyPrecipIn,Conditions,Clouds,dailyrainin,SoftwareType,DateUTC
2013-12-06 00:01:00,-4.2,-16.6,30.22,West,270,20.0,21.0,54,0.00,,,0.00,meteohub,2013-12-06 06:01:00,
2013-12-06 00:06:00,-4.2,-16.6,30.23,West,270,17.0,21.0,54,0.00,,,0.00,meteohub,2013-12-06 06:06:00,
2013-12-06 00:11:00,-4.4,-16.8,30.23,West,270,18.0,21.0,54,0.00,,,0.00,meteohub,2013-12-06 06:11:00,
2013-12-06 00:16:00,-4.7,-17.1,30.24,West,270,13.0,21.0,54,0.00,,,0.00,meteohub,2013-12-06 06:16:00,
2013-12-06 00:22:00,-5.1,-17.5,30.24,West,270,15.0,19.0,54,0.00,,,0.00,meteohub,2013-12-06 06:22:00,
2013-12-06 00:27:00,-5.3,-17.7,30.23,West,270,16.0,18.0,54,0.00,,,0.00,meteohub,2013-12-06 06:27:00,
2013-12-06 00:32:00,-5.3,-17.7,30.24,West,270,15.0,17.0,54,0.00,,,0.00,meteohub,2013-12-06 06:32:00,
2013-12-06 00:38:00,-5.3,-17.7,30.23,West,270,15.0,17.0,54,0.00,,,0.00,meteohub,2013-12-06 06:38:00,
2013-12-06 00:43:00,-5.4,-18.2,30.23,West,270,17.0,17.0,53,0.00,,,0.00,meteohub,2013-12-06 06:43:00,
2013-12-06 00:48:00,-5.6,-18.4,30.24,West,270,14.0,17.0,53,0.00,,,0.00,meteohub,2013-12-06 06:48:00,
2013-12-06 00:54:00,-5.8,-18.6,30.24,West,270,13.0,20.0,53,0.00,,,0.00,meteohub,2013-12-06 06:54:00,
2013-12-06 00:59:00,-5.8,-18.6,30.24,West,270,12.0,20.0,53,0.00,,,0.00,meteohub,2013-12-06 06:59:00,
2013-12-06 01:04:00,-6.0,-18.4,30.24,West,270,15.0,20.0,54,0.00,,,0.00,meteohub,2013-12-06 07:04:00,
2013-12-06 01:09:00,-6.0,-18.4,30.23,West,270,15.0,17.0,54,0.00,,,0.00,meteohub,2013-12-06 07:09:00,
2013-12-06 01:14:00,-6.0,-18.4,30.23,West,270,15.0,17.0,54,0.00,,,0.00,meteohub,2013-12-06 07:14:00,
2013-12-06 01:19:00,-6.0,-18.4,30.24,West,270,15.0,17.0,54,0.00,,,0.00,meteohub,2013-12-06 07:19:00,
2013-12-06 01:25:00,-6.2,-18.4,30.24,West,270,15.0,20.0,54,0.00,,,0.00,meteohub,2013-12-06 07:25:00,
2013-12-06 01:30:00,-6.3,-18.6,30.24,West,270,14.0,20.0,54,0.00,,,0.00,meteohub,2013-12-06 07:30:00,
2013-12-06 01:35:00,-6.3,-18.6,30.24,West,270,15.0,15.0,54,0.00,,,0.00,meteohub,2013-12-06 07:35:00,
2013-12-06 01:40:00,-6.3,-18.6,30.25,West,270,13.0,15.0,54,0.00,,,0.00,meteohub,2013-12-06 07:40:00,
2013-12-06 01:45:00,-6.3,-18.6,30.25,West,270,13.0,15.0,54,0.00,,,0.00,meteohub,2013-12-06 07:45:00,
2013-12-06 01:50:00,-6.5,-18.8,30.25,West,270,14.0,15.0,54,0.00,,,0.00,meteohub,2013-12-06 07:50:00,
2013-12-06 01:55:00,-6.5,-18.8,30.25,West,270,14.0,15.0,54,0.00,,,0.00,meteohub,2013-12-06 07:55:00,
2013-12-06 02:00:00,-6.7,-18.9,30.25,West,270,15.0,16.0,54,0.00,,,0.00,meteohub,2013-12-06 08:00:00,
2013-12-06 02:05:00,-6.7,-18.9,30.25,West,270,17.0,17.0,54,0.00,,,0.00,meteohub,2013-12-06 08:05:00,
2013-12-06 02:10:00,-6.7,-18.9,30.25,West,270,15.0,17.0,54,0.00,,,0.00,meteohub,2013-12-06 08:10:00,
2013-12-06 02:16:00,-6.7,-18.9,30.25,West,270,13.0,17.0,54,0.00,,,0.00,meteohub,2013-12-06 08:16:00,
2013-12-06 02:21:00,-6.7,-18.9,30.25,West,270,15.0,17.0,54,0.00,,,0.00,meteohub,2013-12-06 08:21:00,
2013-12-06 02:26:00,-6.7,-18.9,30.25,West,270,15.0,17.0,54,0.00,,,0.00,meteohub,2013-12-06 08:26:00,
2013-12-06 02:31:00,-6.9,-19.1,30.25,West,270,15.0,17.0,54,0.00,,,0.00,meteohub,2013-12-06 08:31:00,
2013-12-06 02:36:00,-7.1,-19.3,30.25,West,270,15.0,15.0,54,0.00,,,0.00,meteohub,2013-12-06 08:36:00,
2013-12-06 02:41:00,-7.1,-19.3,30.25,West,270,13.0,17.0,54,0.00,,,0.00,meteohub,2013-12-06 08:41:00,
2013-12-06 02:46:00,-7.4,-19.7,30.25,West,270,11.0,17.0,54,0.00,,,0.00,meteohub,2013-12-06 08:46:00,
2013-12-06 02:51:00,-7.4,-20.0,30.25,West,270,15.0,17.0,53,0.00,,,0.00,meteohub,2013-12-06 08:51:00,
2013-12-06 02:56:00,-7.6,-20.2,30.25,West,270,13.0,15.0,53,0.00,,,0.00,meteohub,2013-12-06 08:56:00,
2013-12-06 03:01:00,-7.8,-21.8,30.26,West,270,12.0,15.0,49,0.00,,,0.00,meteohub,2013-12-06 09:01:00,
2013-12-06 03:06:00,-8.0,-22.0,30.26,West,270,11.0,15.0,49,0.00,,,0.00,meteohub,2013-12-06 09:06:00,
2013-12-06 03:11:00,-8.0,-22.0,30.25,West,270,13.0,15.0,49,0.00,,,0.00,meteohub,2013-12-06 09:11:00,
2013-12-06 03:16:00,-8.1,-22.2,30.25,West,270,13.0,14.0,49,0.00,,,0.00,meteohub,2013-12-06 09:16:00,
2013-12-06 03:22:00,-8.3,-22.4,30.25,West,270,11.0,14.0,49,0.00,,,0.00,meteohub,2013-12-06 09:22:00,
2013-12-06 03:27:00,-8.3,-22.4,30.25,West,270,11.0,14.0,49,0.00,,,0.00,meteohub,2013-12-06 09:27:00,
2013-12-06 03:32:00,-8.5,-22.5,30.25,West,270,11.0,13.0,49,0.00,,,0.00,meteohub,2013-12-06 09:32:00,
2013-12-06 03:37:00,-8.5,-22.5,30.25,West,270,13.0,13.0,49,0.00,,,0.00,meteohub,2013-12-06 09:37:00,
2013-12-06 03:42:00,-8.5,-22.5,30.25,West,270,11.0,13.0,49,0.00,,,0.00,meteohub,2013-12-06 09:42:00,
2013-12-06 03:47:00,-8.7,-22.7,30.25,West,270,13.0,13.0,49,0.00,,,0.00,meteohub,2013-12-06 09:47:00,
2013-12-06 03:52:00,-8.7,-22.7,30.25,West,270,13.0,13.0,49,0.00,,,0.00,meteohub,2013-12-06 09:52:00,
2013-12-06 03:57:00,-8.7,-22.7,30.25,West,270,13.0,15.0,49,0.00,,,0.00,meteohub,2013-12-06 09:57:00,
2013-12-06 04:02:00,-8.7,-22.7,30.25,West,270,12.0,15.0,49,0.00,,,0.00,meteohub,2013-12-06 10:02:00,
2013-12-06 04:07:00,-8.7,-22.7,30.25,West,270,14.0,15.0,49,0.00,,,0.00,meteohub,2013-12-06 10:07:00,
2013-12-06 04:12:00,-8.7,-22.7,30.25,West,270,14.0,15.0,49,0.00,,,0.00,meteohub,2013-12-06 10:12:00,
2013-12-06 04:17:00,-8.7,-22.7,30.26,West,270,11.0,15.0,49,0.00,,,0.00,meteohub,2013-12-06 10:17:00,
2013-12-06 04:22:00,-8.7,-22.7,30.26,West,270,12.0,15.0,49,0.00,,,0.00,meteohub,2013-12-06 10:22:00,
2013-12-06 04:27:00,-8.9,-22.9,30.26,West,270,10.0,15.0,49,0.00,,,0.00,meteohub,2013-12-06 10:27:00,
2013-12-06 04:32:00,-8.9,-22.9,30.26,West,270,15.0,15.0,49,0.00,,,0.00,meteohub,2013-12-06 10:32:00,
2013-12-06 04:37:00,-8.7,-22.4,30.26,West,270,17.0,17.0,50,0.00,,,0.00,meteohub,2013-12-06 10:37:00,
2013-12-06 04:43:00,-8.5,-22.2,30.26,West,270,15.0,17.0,50,0.00,,,0.00,meteohub,2013-12-06 10:43:00,
2013-12-06 04:48:00,-8.3,-22.0,30.26,West,270,15.0,17.0,50,0.00,,,0.00,meteohub,2013-12-06 10:48:00,
2013-12-06 04:53:00,-8.1,-21.8,30.27,NW,315,14.0,18.0,50,0.00,,,0.00,meteohub,2013-12-06 10:53:00,
2013-12-06 04:58:00,-8.1,-21.8,30.27,West,270,14.0,18.0,50,0.00,,,0.00,meteohub,2013-12-06 10:58:00,
2013-12-06 05:03:00,-8.3,-22.0,30.27,West,270,16.0,18.0,50,0.00,,,0.00,meteohub,2013-12-06 11:03:00,
2013-12-06 05:08:00,-8.5,-22.2,30.27,West,270,14.0,17.0,50,0.00,,,0.00,meteohub,2013-12-06 11:08:00,
2013-12-06 05:13:00,-8.9,-22.5,30.28,West,270,12.0,17.0,50,0.00,,,0.00,meteohub,2013-12-06 11:13:00,
2013-12-06 05:19:00,-8.9,-22.5,30.28,West,270,14.0,16.0,50,0.00,,,0.00,meteohub,2013-12-06 11:19:00,
2013-12-06 05:24:00,-8.9,-22.5,30.28,West,270,13.0,15.0,50,0.00,,,0.00,meteohub,2013-12-06 11:24:00,
2013-12-06 05:29:00,-8.9,-22.5,30.28,West,270,13.0,15.0,50,0.00,,,0.00,meteohub,2013-12-06 11:29:00,
2013-12-06 05:34:00,-8.9,-22.5,30.28,West,270,13.0,15.0,50,0.00,,,0.00,meteohub,2013-12-06 11:34:00,
2013-12-06 05:39:00,-9.0,-22.7,30.29,West,270,12.0,15.0,50,0.00,,,0.00,meteohub,2013-12-06 11:39:00,
2013-12-06 05:44:00,-9.0,-22.7,30.28,West,270,15.0,16.0,50,0.00,,,0.00,meteohub,2013-12-06 11:44:00,
2013-12-06 05:49:00,-9.2,-23.3,30.29,West,270,15.0,16.0,49,0.00,,,0.00,meteohub,2013-12-06 11:49:00,
2013-12-06 05:54:00,-9.4,-23.4,30.29,West,270,16.0,16.0,49,0.00,,,0.00,meteohub,2013-12-06 11:54:00,
2013-12-06 05:59:00,-9.2,-23.3,30.29,West,270,16.0,19.0,49,0.00,,,0.00,meteohub,2013-12-06 11:59:00,
2013-12-06 06:04:00,-9.4,-22.9,30.29,West,270,18.0,19.0,50,0.00,,,0.00,meteohub,2013-12-06 12:04:00,
2013-12-06 06:09:00,-9.4,-22.9,30.29,West,270,17.0,19.0,50,0.00,,,0.00,meteohub,2013-12-06 12:09:00,
2013-12-06 06:15:00,-9.4,-23.4,30.30,West,270,15.0,18.0,49,0.00,,,0.00,meteohub,2013-12-06 12:15:00,
2013-12-06 06:20:00,-9.8,-23.3,30.30,West,270,17.0,18.0,50,0.00,,,0.00,meteohub,2013-12-06 12:20:00,
2013-12-06 06:25:00,-9.8,-23.3,30.30,West,270,15.0,18.0,50,0.00,,,0.00,meteohub,2013-12-06 12:25:00,
2013-12-06 06:30:00,-9.8,-23.3,30.30,NW,315,12.0,17.0,50,0.00,,,0.00,meteohub,2013-12-06 12:30:00,
2013-12-06 06:35:00,-9.4,-22.9,30.30,West,270,15.0,17.0,50,0.00,,,0.00,meteohub,2013-12-06 12:35:00,
2013-12-06 06:40:00,-9.2,-22.9,30.31,West,270,16.0,17.0,50,0.00,,,0.00,meteohub,2013-12-06 12:40:00,
2013-12-06 06:46:00,-9.2,-22.9,30.32,NW,315,19.0,19.0,50,0.00,,,0.00,meteohub,2013-12-06 12:46:00,
2013-12-06 06:51:00,-9.2,-22.9,30.32,NW,315,20.0,20.0,50,0.00,,,0.00,meteohub,2013-12-06 12:51:00,
2013-12-06 06:56:00,-9.0,-22.4,30.32,West,270,15.0,20.0,51,0.00,,,0.00,meteohub,2013-12-06 12:56:00,
2013-12-06 07:01:00,-9.4,-22.5,30.32,West,270,14.0,20.0,51,0.00,,,0.00,meteohub,2013-12-06 13:01:00,
2013-12-06 07:06:00,-9.6,-22.4,30.32,West,270,14.0,20.0,52,0.00,,,0.00,meteohub,2013-12-06 13:06:00,
2013-12-06 07:12:00,-9.4,-22.5,30.33,West,270,13.0,18.0,51,0.00,,,0.00,meteohub,2013-12-06 13:12:00,
2013-12-06 07:17:00,-9.6,-22.4,30.33,West,270,15.0,17.0,52,0.00,,,0.00,meteohub,2013-12-06 13:17:00,
2013-12-06 07:22:00,-9.4,-22.2,30.34,NW,315,13.0,17.0,52,0.00,,,0.00,meteohub,2013-12-06 13:22:00,
2013-12-06 07:27:00,-9.4,-22.2,30.34,West,270,12.0,17.0,52,0.00,,,0.00,meteohub,2013-12-06 13:27:00,
2013-12-06 07:32:00,-9.6,-22.0,30.33,NW,315,9.0,15.0,53,0.00,,,0.00,meteohub,2013-12-06 13:32:00,
2013-12-06 07:37:00,-9.6,-22.0,30.34,West,270,13.0,15.0,53,0.00,,,0.00,meteohub,2013-12-06 13:37:00,
2013-12-06 07:42:00,-9.6,-22.0,30.33,West,270,13.0,15.0,53,0.00,,,0.00,meteohub,2013-12-06 13:42:00,
2013-12-06 07:47:00,-9.4,-22.2,30.33,West,270,17.0,17.0,52,0.00,,,0.00,meteohub,2013-12-06 13:47:00,
2013-12-06 07:53:00,-9.4,-22.2,30.34,West,270,17.0,17.0,52,0.00,,,0.00,meteohub,2013-12-06 13:53:00,
2013-12-06 07:58:00,-9.4,-22.2,30.33,East,90,17.0,17.0,52,0.00,,,0.00,meteohub,2013-12-06 13:58:00,
2013-12-06 08:03:00,-9.4,-22.2,30.34,West,270,14.0,17.0,52,0.00,,,0.00,meteohub,2013-12-06 14:03:00,
2013-12-06 08:08:00,-9.2,-22.0,30.34,NW,315,16.0,19.0,52,0.00,,,0.00,meteohub,2013-12-06 14:08:00,
2013-12-06 08:13:00,-9.0,-21.5,30.35,West,270,16.0,19.0,53,0.00,,,0.00,meteohub,2013-12-06 14:13:00,
2013-12-06 08:19:00,-9.0,-21.5,30.35,West,270,15.0,19.0,53,0.00,,,0.00,meteohub,2013-12-06 14:19:00,
2013-12-06 08:24:00,-9.0,-21.5,30.35,NW,315,15.0,22.0,53,0.00,,,0.00,meteohub,2013-12-06 14:24:00,
2013-12-06 08:29:00,-8.9,-21.5,30.36,West,270,17.0,22.0,53,0.00,,,0.00,meteohub,2013-12-06 14:29:00,
2013-12-06 08:35:00,-8.9,-21.5,30.37,West,270,15.0,22.0,53,0.00,,,0.00,meteohub,2013-12-06 14:35:00,
2013-12-06 08:40:00,-9.0,-21.5,30.37,West,270,12.0,17.0,53,0.00,,,0.00,meteohub,2013-12-06 14:40:00,
2013-12-06 08:45:00,-9.2,-21.6,30.37,West,270,12.0,17.0,53,0.00,,,0.00,meteohub,2013-12-06 14:45:00,
2013-12-06 08:50:00,-8.9,-21.5,30.37,West,270,12.0,16.0,53,0.00,,,0.00,meteohub,2013-12-06 14:50:00,
2013-12-06 08:55:00,-8.7,-21.3,30.38,West,270,11.0,15.0,53,0.00,,,0.00,meteohub,2013-12-06 14:55:00,
2013-12-06 09:00:00,-8.7,-21.3,30.37,West,270,11.0,14.0,53,0.00,,,0.00,meteohub,2013-12-06 15:00:00,
2013-12-06 09:06:00,-8.7,-21.3,30.38,West,270,12.0,15.0,53,0.00,,,0.00,meteohub,2013-12-06 15:06:00,
2013-12-06 09:11:00,-8.5,-21.1,30.37,West,270,15.0,15.0,53,0.00,,,0.00,meteohub,2013-12-06 15:11:00,
2013-12-06 09:16:00,-8.1,-20.7,30.37,West,270,16.0,16.0,53,0.00,,,0.00,meteohub,2013-12-06 15:16:00,
2013-12-06 09:21:00,-8.0,-20.6,30.37,West,270,18.0,18.0,53,0.00,,,0.00,meteohub,2013-12-06 15:21:00,
2013-12-06 09:27:00,-7.8,-20.4,30.38,West,270,19.0,20.0,53,0.00,,,0.00,meteohub,2013-12-06 15:27:00,
2013-12-06 09:32:00,-7.2,-18.4,30.38,NW,315,17.0,20.0,57,0.00,,,0.00,meteohub,2013-12-06 15:32:00,
2013-12-06 09:37:00,-7.1,-18.2,30.38,West,270,15.0,20.0,57,0.00,,,0.00,meteohub,2013-12-06 15:37:00,
2013-12-06 09:43:00,-6.9,-18.0,30.38,West,270,15.0,19.0,57,0.00,,,0.00,meteohub,2013-12-06 15:43:00,
2013-12-06 09:48:00,-6.7,-17.9,30.38,West,270,17.0,20.0,57,0.00,,,0.00,meteohub,2013-12-06 15:48:00,
2013-12-06 09:53:00,-6.5,-17.7,30.38,West,270,19.0,20.0,57,0.00,,,0.00,meteohub,2013-12-06 15:53:00,
2013-12-06 09:59:00,-6.0,-17.7,30.38,NW,315,18.0,20.0,56,0.00,,,0.00,meteohub,2013-12-06 15:59:00,
2013-12-06 10:04:00,-5.8,-17.9,30.38,West,270,21.0,21.0,55,0.00,,,0.00,meteohub,2013-12-06 16:04:00,
2013-12-06 10:09:00,-5.4,-17.5,30.38,NW,315,19.0,24.0,55,0.00,,,0.00,meteohub,2013-12-06 16:09:00,
2013-12-06 10:14:00,-5.4,-17.9,30.38,West,270,21.0,24.0,54,0.00,,,0.00,meteohub,2013-12-06 16:14:00,
2013-12-06 10:19:00,-5.3,-17.7,30.39,NW,315,23.0,25.0,54,0.00,,,0.00,meteohub,2013-12-06 16:19:00,
2013-12-06 10:24:00,-5.3,-18.0,30.39,NW,315,23.0,25.0,53,0.00,,,0.00,meteohub,2013-12-06 16:24:00,
2013-12-06 10:29:00,-5.1,-17.9,30.39,NW,315,24.0,27.0,53,0.00,,,0.00,meteohub,2013-12-06 16:29:00,
2013-12-06 10:34:00,-4.9,-17.7,30.40,NW,315,23.0,27.0,53,0.00,,,0.00,meteohub,2013-12-06 16:34:00,
2013-12-06 10:39:00,-4.7,-17.5,30.39,NW,315,23.0,26.0,53,0.00,,,0.00,meteohub,2013-12-06 16:39:00,
2013-12-06 10:45:00,-4.7,-17.5,30.39,NW,315,27.0,27.0,53,0.00,,,0.00,meteohub,2013-12-06 16:45:00,
2013-12-06 10:50:00,-4.4,-17.1,30.39,NW,315,27.0,29.0,53,0.00,,,0.00,meteohub,2013-12-06 16:50:00,
2013-12-06 10:55:00,-4.5,-17.3,30.40,West,270,22.0,29.0,53,0.00,,,0.00,meteohub,2013-12-06 16:55:00,
2013-12-06 11:00:00,-3.8,-17.0,30.40,NW,315,27.0,29.0,52,0.00,,,0.00,meteohub,2013-12-06 17:00:00,
2013-12-06 11:06:00,-4.0,-17.1,30.40,West,270,24.0,27.0,52,0.00,,,0.00,meteohub,2013-12-06 17:06:00,
2013-12-06 11:11:00,-4.0,-17.1,30.39,West,270,25.0,27.0,52,0.00,,,0.00,meteohub,2013-12-06 17:11:00,
2013-12-06 11:16:00,-4.2,-17.0,30.39,NW,315,28.0,28.0,53,0.00,,,0.00,meteohub,2013-12-06 17:16:00,
2013-12-06 11:21:00,-3.8,-17.0,30.40,West,270,21.0,28.0,52,0.00,,,0.00,meteohub,2013-12-06 17:21:00,
2013-12-06 11:27:00,-3.8,-17.0,30.39,NW,315,22.0,28.0,52,0.00,,,0.00,meteohub,2013-12-06 17:27:00,
2013-12-06 11:32:00,-3.8,-17.0,30.40,NW,315,20.0,28.0,52,0.00,,,0.00,meteohub,2013-12-06 17:32:00,
2013-12-06 11:34:00,-3.6,-16.8,30.40,NW,315,18.0,28.0,52,0.00,,,0.00,meteohub,2013-12-06 17:34:00,
2013-12-06 11:42:00,-3.5,-16.6,30.39,NW,315,19.0,23.0,52,0.00,,,0.00,meteohub,2013-12-06 17:42:00,
2013-12-06 11:50:00,-3.5,-17.1,30.39,North,0,18.0,22.0,51,0.00,,,0.00,meteohub,2013-12-06 17:50:00,
2013-12-06 11:55:00,-2.7,-16.1,30.39,West,270,18.0,22.0,52,0.00,,,0.00,meteohub,2013-12-06 17:55:00,
2013-12-06 12:00:00,-2.9,-16.2,30.39,NW,315,17.0,22.0,52,0.00,,,0.00,meteohub,2013-12-06 18:00:00,
2013-12-06 12:06:00,-2.6,-15.9,30.39,NW,315,20.0,20.0,52,0.00,,,0.00,meteohub,2013-12-06 18:06:00,
2013-12-06 12:11:00,-2.7,-16.4,30.40,NW,315,18.0,21.0,51,0.00,,,0.00,meteohub,2013-12-06 18:11:00,
2013-12-06 12:17:00,-2.9,-16.6,30.40,West,270,21.0,21.0,51,0.00,,,0.00,meteohub,2013-12-06 18:17:00,
2013-12-06 12:22:00,-2.6,-16.2,30.39,North,0,17.0,21.0,51,0.00,,,0.00,meteohub,2013-12-06 18:22:00,
2013-12-06 12:27:00,-2.7,-16.4,30.40,NW,315,17.0,21.0,51,0.00,,,0.00,meteohub,2013-12-06 18:27:00,
2013-12-06 12:33:00,-2.4,-16.1,30.40,West,270,18.0,21.0,51,0.00,,,0.00,meteohub,2013-12-06 18:33:00,
2013-12-06 12:42:00,-1.8,-15.9,30.39,WNW,293,19.0,20.0,50,0.00,,,0.00,meteohub,2013-12-06 18:42:00,
2013-12-06 12:49:00,-1.8,-15.9,30.38,NW,315,21.0,21.0,50,0.00,,,0.00,meteohub,2013-12-06 18:49:00,
2013-12-06 12:54:00,-2.2,-16.2,30.38,NW,315,20.0,20.0,50,0.00,,,0.00,meteohub,2013-12-06 18:54:00,
2013-12-06 13:00:00,-2.0,-16.1,30.39,West,270,15.0,21.0,50,0.00,,,0.00,meteohub,2013-12-06 19:00:00,
2013-12-06 13:05:00,-2.0,-16.1,30.38,West,270,18.0,21.0,50,0.00,,,0.00,meteohub,2013-12-06 19:05:00,
2013-12-06 13:10:00,-1.8,-15.9,30.39,NW,315,17.0,21.0,50,0.00,,,0.00,meteohub,2013-12-06 19:10:00,
2013-12-06 13:15:00,-1.5,-15.5,30.38,West,270,19.0,19.0,50,0.00,,,0.00,meteohub,2013-12-06 19:15:00,
2013-12-06 13:20:00,-1.3,-15.5,30.38,West,270,17.0,19.0,50,0.00,,,0.00,meteohub,2013-12-06 19:20:00,
2013-12-06 13:25:00,-0.8,-14.6,30.38,NW,315,13.0,19.0,51,0.00,,,0.00,meteohub,2013-12-06 19:25:00,
2013-12-06 13:30:00,-0.8,-14.6,30.38,West,270,15.0,19.0,51,0.00,,,0.00,meteohub,2013-12-06 19:30:00,
2013-12-06 13:36:00,-0.9,-15.2,30.38,West,270,17.0,17.0,50,0.00,,,0.00,meteohub,2013-12-06 19:36:00,
2013-12-06 13:41:00,-1.3,-15.5,30.38,NW,315,17.0,21.0,50,0.00,,,0.00,meteohub,2013-12-06 19:41:00,
2013-12-06 13:46:00,-1.1,-15.3,30.38,West,270,17.0,21.0,50,0.00,,,0.00,meteohub,2013-12-06 19:46:00,
2013-12-06 13:51:00,-1.1,-15.3,30.38,NW,315,21.0,21.0,50,0.00,,,0.00,meteohub,2013-12-06 19:51:00,
2013-12-06 13:56:00,-1.5,-15.5,30.38,NW,315,21.0,22.0,50,0.00,,,0.00,meteohub,2013-12-06 19:56:00,
2013-12-06 14:01:00,-1.3,-15.5,30.38,NW,315,17.0,22.0,50,0.00,,,0.00,meteohub,2013-12-06 20:01:00,
2013-12-06 14:02:00,-1.3,-15.5,30.38,NW,315,17.0,22.0,50,0.00,,,0.00,meteohub,2013-12-06 20:02:00,
2013-12-06 14:12:00,-1.3,-15.5,30.39,NW,315,21.0,21.0,50,0.00,,,0.00,meteohub,2013-12-06 20:12:00,
2013-12-06 14:17:00,-1.5,-15.5,30.39,NW,315,18.0,21.0,50,0.00,,,0.00,meteohub,2013-12-06 20:17:00,
2013-12-06 14:22:00,-1.5,-15.5,30.38,NW,315,17.0,21.0,50,0.00,,,0.00,meteohub,2013-12-06 20:22:00,
2013-12-06 14:27:00,-1.7,-15.7,30.38,West,270,17.0,23.0,50,0.00,,,0.00,meteohub,2013-12-06 20:27:00,
2013-12-06 14:32:00,-1.3,-15.5,30.38,NW,315,15.0,23.0,50,0.00,,,0.00,meteohub,2013-12-06 20:32:00,
2013-12-06 14:38:00,-1.1,-15.3,30.38,NW,315,19.0,21.0,50,0.00,,,0.00,meteohub,2013-12-06 20:38:00,
2013-12-06 14:43:00,-1.3,-15.5,30.39,NW,315,22.0,22.0,50,0.00,,,0.00,meteohub,2013-12-06 20:43:00,
2013-12-06 14:48:00,-1.5,-15.5,30.39,NW,315,20.0,22.0,50,0.00,,,0.00,meteohub,2013-12-06 20:48:00,
2013-12-06 14:53:00,-1.3,-15.5,30.39,NW,315,22.0,22.0,50,0.00,,,0.00,meteohub,2013-12-06 20:53:00,
2013-12-06 14:58:00,-1.3,-15.5,30.39,NW,315,17.0,22.0,50,0.00,,,0.00,meteohub,2013-12-06 20:58:00,
2013-12-06 15:03:00,-1.1,-15.3,30.39,West,270,20.0,22.0,50,0.00,,,0.00,meteohub,2013-12-06 21:03:00,
2013-12-06 15:09:00,-1.1,-15.3,30.40,NW,315,19.0,22.0,50,0.00,,,0.00,meteohub,2013-12-06 21:09:00,
2013-12-06 15:14:00,-1.1,-15.3,30.40,NW,315,17.0,21.0,50,0.00,,,0.00,meteohub,2013-12-06 21:14:00,
2013-12-06 15:19:00,-0.9,-15.2,30.40,NW,315,16.0,21.0,50,0.00,,,0.00,meteohub,2013-12-06 21:19:00,
2013-12-06 15:24:00,-0.9,-15.2,30.40,NW,315,14.0,21.0,50,0.00,,,0.00,meteohub,2013-12-06 21:24:00,
2013-12-06 15:29:00,-0.6,-14.8,30.40,NW,315,17.0,19.0,50,0.00,,,0.00,meteohub,2013-12-06 21:29:00,
2013-12-06 15:34:00,-0.8,-15.0,30.40,NW,315,16.0,21.0,50,0.00,,,0.00,meteohub,2013-12-06 21:34:00,
2013-12-06 15:39:00,-0.9,-15.2,30.40,West,270,18.0,21.0,50,0.00,,,0.00,meteohub,2013-12-06 21:39:00,
2013-12-06 15:44:00,-0.9,-15.2,30.40,West,270,19.0,21.0,50,0.00,,,0.00,meteohub,2013-12-06 21:44:00,
2013-12-06 15:49:00,-0.9,-15.2,30.40,NW,315,17.0,19.0,50,0.00,,,0.00,meteohub,2013-12-06 21:49:00,
2013-12-06 15:54:00,-0.9,-15.2,30.41,NW,315,16.0,20.0,50,0.00,,,0.00,meteohub,2013-12-06 21:54:00,
2013-12-06 15:59:00,-0.8,-15.0,30.40,NW,315,13.0,20.0,50,0.00,,,0.00,meteohub,2013-12-06 21:59:00,
2013-12-06 16:05:00,-1.1,-15.3,30.41,West,270,15.0,18.0,50,0.00,,,0.00,meteohub,2013-12-06 22:05:00,
2013-12-06 16:10:00,-1.3,-15.5,30.41,West,270,17.0,18.0,50,0.00,,,0.00,meteohub,2013-12-06 22:10:00,
2013-12-06 16:15:00,-1.7,-16.2,30.41,NW,315,18.0,18.0,49,0.00,,,0.00,meteohub,2013-12-06 22:15:00,
2013-12-06 16:20:00,-1.7,-15.7,30.41,NW,315,15.0,18.0,50,0.00,,,0.00,meteohub,2013-12-06 22:20:00,
2013-12-06 16:25:00,-1.7,-15.7,30.41,NW,315,15.0,18.0,50,0.00,,,0.00,meteohub,2013-12-06 22:25:00,
2013-12-06 16:30:00,-1.8,-15.9,30.41,NW,315,13.0,18.0,50,0.00,,,0.00,meteohub,2013-12-06 22:30:00,
2013-12-06 16:35:00,-2.0,-16.1,30.41,NW,315,14.0,17.0,50,0.00,,,0.00,meteohub,2013-12-06 22:35:00,
2013-12-06 16:40:00,-2.2,-16.2,30.41,NW,315,13.0,16.0,50,0.00,,,0.00,meteohub,2013-12-06 22:40:00,
2013-12-06 16:45:00,-2.6,-16.2,30.41,NW,315,14.0,15.0,51,0.00,,,0.00,meteohub,2013-12-06 22:45:00,
2013-12-06 16:50:00,-2.6,-16.2,30.41,NW,315,13.0,15.0,51,0.00,,,0.00,meteohub,2013-12-06 22:50:00,
2013-12-06 16:55:00,-2.7,-16.1,30.41,West,270,12.0,14.0,52,0.00,,,0.00,meteohub,2013-12-06 22:55:00,
2013-12-06 17:01:00,-2.7,-16.1,30.41,NW,315,14.0,14.0,52,0.00,,,0.00,meteohub,2013-12-06 23:01:00,
2013-12-06 17:06:00,-2.9,-16.2,30.41,NW,315,11.0,15.0,52,0.00,,,0.00,meteohub,2013-12-06 23:06:00,
2013-12-06 17:11:00,-3.1,-16.4,30.41,NW,315,11.0,15.0,52,0.00,,,0.00,meteohub,2013-12-06 23:11:00,
2013-12-06 17:16:00,-3.3,-16.6,30.42,NW,315,10.0,15.0,52,0.00,,,0.00,meteohub,2013-12-06 23:16:00,
2013-12-06 17:21:00,-3.5,-16.2,30.42,NW,315,10.0,12.0,53,0.00,,,0.00,meteohub,2013-12-06 23:21:00,
2013-12-06 17:26:00,-3.6,-16.4,30.42,West,270,11.0,12.0,53,0.00,,,0.00,meteohub,2013-12-06 23:26:00,
2013-12-06 17:31:00,-3.6,-16.4,30.43,NW,315,11.0,13.0,53,0.00,,,0.00,meteohub,2013-12-06 23:31:00,
2013-12-06 17:36:00,-3.8,-16.6,30.43,West,270,11.0,13.0,53,0.00,,,0.00,meteohub,2013-12-06 23:36:00,
2013-12-06 17:41:00,-3.8,-16.6,30.42,NW,315,9.0,13.0,53,0.00,,,0.00,meteohub,2013-12-06 23:41:00,
2013-12-06 17:46:00,-4.0,-16.8,30.42,West,270,11.0,12.0,53,0.00,,,0.00,meteohub,2013-12-06 23:46:00,
2013-12-06 17:52:00,-4.0,-16.4,30.42,West,270,11.0,12.0,54,0.00,,,0.00,meteohub,2013-12-06 23:52:00,
2013-12-06 17:57:00,-4.0,-16.4,30.43,West,270,11.0,13.0,54,0.00,,,0.00,meteohub,2013-12-06 23:57:00,
2013-12-06 18:02:00,-4.0,-16.4,30.43,West,270,12.0,13.0,54,0.00,,,0.00,meteohub,2013-12-07 00:02:00,
2013-12-06 18:07:00,-4.0,-16.4,30.43,NW,315,13.0,13.0,54,0.00,,,0.00,meteohub,2013-12-07 00:07:00,
2013-12-06 18:13:00,-4.0,-16.4,30.43,West,270,13.0,13.0,54,0.00,,,0.00,meteohub,2013-12-07 00:13:00,
2013-12-06 18:18:00,-4.0,-16.4,30.43,NW,315,14.0,14.0,54,0.00,,,0.00,meteohub,2013-12-07 00:18:00,
2013-12-06 18:23:00,-4.0,-16.1,30.43,NW,315,15.0,15.0,55,0.00,,,0.00,meteohub,2013-12-07 00:23:00,
2013-12-06 18:28:00,-4.2,-15.9,30.43,West,270,13.0,15.0,56,0.00,,,0.00,meteohub,2013-12-07 00:28:00,
2013-12-06 18:34:00,-4.2,-15.9,30.43,NW,315,14.0,15.0,56,0.00,,,0.00,meteohub,2013-12-07 00:34:00,
2013-12-06 18:39:00,-4.5,-16.2,30.44,NW,315,12.0,15.0,56,0.00,,,0.00,meteohub,2013-12-07 00:39:00,
2013-12-06 18:44:00,-4.5,-16.2,30.44,NW,315,12.0,14.0,56,0.00,,,0.00,meteohub,2013-12-07 00:44:00,
2013-12-06 18:49:00,-4.7,-16.4,30.44,NW,315,12.0,14.0,56,0.00,,,0.00,meteohub,2013-12-07 00:49:00,
2013-12-06 18:55:00,-4.9,-16.6,30.44,NW,315,9.0,14.0,56,0.00,,,0.00,meteohub,2013-12-07 00:55:00,
2013-12-06 19:00:00,-5.1,-16.8,30.44,NW,315,14.0,14.0,56,0.00,,,0.00,meteohub,2013-12-07 01:00:00,
2013-12-06 19:05:00,-4.9,-16.6,30.44,West,270,14.0,15.0,56,0.00,,,0.00,meteohub,2013-12-07 01:05:00,
2013-12-06 19:10:00,-4.9,-16.6,30.44,West,270,15.0,15.0,56,0.00,,,0.00,meteohub,2013-12-07 01:10:00,
2013-12-06 19:15:00,-4.7,-16.4,30.44,West,270,11.0,16.0,56,0.00,,,0.00,meteohub,2013-12-07 01:15:00,
2013-12-06 19:21:00,-4.7,-16.4,30.44,West,270,14.0,16.0,56,0.00,,,0.00,meteohub,2013-12-07 01:21:00,
2013-12-06 19:26:00,-4.9,-16.6,30.45,West,270,12.0,16.0,56,0.00,,,0.00,meteohub,2013-12-07 01:26:00,
2013-12-06 19:31:00,-5.1,-16.8,30.44,West,270,11.0,17.0,56,0.00,,,0.00,meteohub,2013-12-07 01:31:00,
2013-12-06 19:36:00,-5.6,-17.3,30.45,West,270,11.0,17.0,56,0.00,,,0.00,meteohub,2013-12-07 01:36:00,
2013-12-06 19:41:00,-5.8,-17.5,30.45,West,270,11.0,17.0,56,0.00,,,0.00,meteohub,2013-12-07 01:41:00,
2013-12-06 19:46:00,-5.8,-17.5,30.45,West,270,11.0,13.0,56,0.00,,,0.00,meteohub,2013-12-07 01:46:00,
2013-12-06 19:51:00,-5.8,-17.5,30.45,West,270,8.0,14.0,56,0.00,,,0.00,meteohub,2013-12-07 01:51:00,
2013-12-06 19:56:00,-6.0,-17.3,30.46,West,270,8.0,14.0,57,0.00,,,0.00,meteohub,2013-12-07 01:56:00,
2013-12-06 20:02:00,-6.3,-17.7,30.46,West,270,8.0,14.0,57,0.00,,,0.00,meteohub,2013-12-07 02:02:00,
2013-12-06 20:07:00,-6.7,-17.9,30.45,West,270,9.0,11.0,57,0.00,,,0.00,meteohub,2013-12-07 02:07:00,
2013-12-06 20:12:00,-6.7,-17.9,30.45,West,270,11.0,11.0,57,0.00,,,0.00,meteohub,2013-12-07 02:12:00,
2013-12-06 20:17:00,-6.7,-17.9,30.45,West,270,12.0,14.0,57,0.00,,,0.00,meteohub,2013-12-07 02:17:00,
2013-12-06 20:23:00,-6.7,-17.9,30.46,West,270,10.0,14.0,57,0.00,,,0.00,meteohub,2013-12-07 02:23:00,
2013-12-06 20:28:00,-6.7,-17.9,30.46,West,270,12.0,14.0,57,0.00,,,0.00,meteohub,2013-12-07 02:28:00,
2013-12-06 20:33:00,-6.7,-17.9,30.46,West,270,12.0,14.0,57,0.00,,,0.00,meteohub,2013-12-07 02:33:00,
2013-12-06 20:39:00,-6.9,-18.4,30.47,West,270,15.0,15.0,56,0.00,,,0.00,meteohub,2013-12-07 02:39:00,
2013-12-06 20:44:00,-6.7,-18.2,30.46,West,270,14.0,17.0,56,0.00,,,0.00,meteohub,2013-12-07 02:44:00,
2013-12-06 20:49:00,-6.7,-18.2,30.46,West,270,17.0,18.0,56,0.00,,,0.00,meteohub,2013-12-07 02:49:00,
2013-12-06 20:54:00,-6.7,-18.2,30.47,West,270,13.0,18.0,56,0.00,,,0.00,meteohub,2013-12-07 02:54:00,
2013-12-06 20:59:00,-6.7,-17.9,30.47,WSW,248,14.0,17.0,57,0.00,,,0.00,meteohub,2013-12-07 02:59:00,
2013-12-06 21:05:00,-7.1,-18.6,30.47,West,270,13.0,15.0,56,0.00,,,0.00,meteohub,2013-12-07 03:05:00,
2013-12-06 21:10:00,-7.2,-18.8,30.47,West,270,14.0,15.0,56,0.00,,,0.00,meteohub,2013-12-07 03:10:00,
2013-12-06 21:15:00,-7.1,-18.6,30.47,West,270,15.0,15.0,56,0.00,,,0.00,meteohub,2013-12-07 03:15:00,
2013-12-06 21:20:00,-7.1,-18.6,30.47,West,270,15.0,15.0,56,0.00,,,0.00,meteohub,2013-12-07 03:20:00,
2013-12-06 21:26:00,-7.2,-18.8,30.47,West,270,15.0,17.0,56,0.00,,,0.00,meteohub,2013-12-07 03:26:00,
2013-12-06 21:30:00,-7.4,-18.9,30.48,West,270,16.0,17.0,56,0.00,,,0.00,meteohub,2013-12-07 03:30:00,
2013-12-06 21:32:00,-7.4,-18.9,30.47,West,270,14.0,17.0,56,0.00,,,0.00,meteohub,2013-12-07 03:32:00,
2013-12-06 21:42:00,-7.4,-19.3,30.47,West,270,13.0,17.0,55,0.00,,,0.00,meteohub,2013-12-07 03:42:00,
2013-12-06 21:47:00,-7.6,-19.1,30.48,West,270,14.0,17.0,56,0.00,,,0.00,meteohub,2013-12-07 03:47:00,
2013-12-06 21:52:00,-7.8,-20.7,30.48,West,270,11.0,15.0,52,0.00,,,0.00,meteohub,2013-12-07 03:52:00,
2013-12-06 21:57:00,-8.1,-21.5,30.48,West,270,11.0,15.0,51,0.00,,,0.00,meteohub,2013-12-07 03:57:00,
2013-12-06 22:02:00,-8.1,-21.5,30.48,West,270,11.0,14.0,51,0.00,,,0.00,meteohub,2013-12-07 04:02:00,
2013-12-06 22:07:00,-8.1,-21.5,30.48,West,270,13.0,15.0,51,0.00,,,0.00,meteohub,2013-12-07 04:07:00,
2013-12-06 22:13:00,-8.3,-21.6,30.48,West,270,11.0,15.0,51,0.00,,,0.00,meteohub,2013-12-07 04:13:00,
2013-12-06 22:18:00,-8.5,-21.8,30.48,West,270,12.0,15.0,51,0.00,,,0.00,meteohub,2013-12-07 04:18:00,
2013-12-06 22:23:00,-8.5,-21.8,30.48,West,270,12.0,15.0,51,0.00,,,0.00,meteohub,2013-12-07 04:23:00,
2013-12-06 22:28:00,-8.7,-22.0,30.49,West,270,15.0,15.0,51,0.00,,,0.00,meteohub,2013-12-07 04:28:00,
2013-12-06 22:33:00,-8.7,-22.0,30.49,West,270,16.0,16.0,51,0.00,,,0.00,meteohub,2013-12-07 04:33:00,
2013-12-06 22:39:00,-8.5,-21.8,30.49,West,270,15.0,16.0,51,0.00,,,0.00,meteohub,2013-12-07 04:39:00,
2013-12-06 22:44:00,-8.9,-22.2,30.49,West,270,11.0,16.0,51,0.00,,,0.00,meteohub,2013-12-07 04:44:00,
2013-12-06 22:49:00,-9.0,-22.4,30.49,West,270,15.0,16.0,51,0.00,,,0.00,meteohub,2013-12-07 04:49:00,
2013-12-06 22:54:00,-9.0,-22.4,30.50,West,270,13.0,16.0,51,0.00,,,0.00,meteohub,2013-12-07 04:54:00,
2013-12-06 23:00:00,-9.0,-22.4,30.50,West,270,15.0,15.0,51,0.00,,,0.00,meteohub,2013-12-07 05:00:00,
2013-12-06 23:01:00,-9.0,-22.7,30.50,West,270,15.0,15.0,50,0.00,,,0.00,meteohub,2013-12-07 05:01:00,
2013-12-06 23:02:00,-9.0,-22.7,30.50,West,270,14.0,15.0,50,0.00,,,0.00,meteohub,2013-12-07 05:02:00,
2013-12-06 23:03:00,-9.0,-22.7,30.50,West,270,13.0,15.0,50,0.00,,,0.00,meteohub,2013-12-07 05:03:00,
2013-12-06 23:08:00,-9.0,-22.7,30.49,West,270,13.0,16.0,50,0.00,,,0.00,meteohub,2013-12-07 05:08:00,
2013-12-06 23:14:00,-9.2,-22.9,30.50,West,270,15.0,16.0,50,0.00,,,0.00,meteohub,2013-12-07 05:14:00,
2013-12-06 23:18:00,-9.2,-22.9,30.50,West,270,14.0,18.0,50,0.00,,,0.00,meteohub,2013-12-07 05:18:00,
2013-12-06 23:20:00,-9.4,-22.9,30.50,West,270,13.0,18.0,50,0.00,,,0.00,meteohub,2013-12-07 05:20:00,
2013-12-06 23:26:00,-9.4,-22.9,30.50,West,270,12.0,18.0,50,0.00,,,0.00,meteohub,2013-12-07 05:26:00,
2013-12-06 23:31:00,-9.4,-22.9,30.50,West,270,12.0,17.0,50,0.00,,,0.00,meteohub,2013-12-07 05:31:00,
2013-12-06 23:36:00,-9.6,-22.7,30.50,West,270,12.0,15.0,51,0.00,,,0.00,meteohub,2013-12-07 05:36:00,
2013-12-06 23:41:00,-9.8,-22.9,30.50,West,270,13.0,14.0,51,0.00,,,0.00,meteohub,2013-12-07 05:41:00,
2013-12-06 23:46:00,-9.8,-22.9,30.51,West,270,11.0,13.0,51,0.00,,,0.00,meteohub,2013-12-07 05:46:00,
2013-12-06 23:52:00,-9.9,-23.1,30.51,West,270,11.0,13.0,51,0.00,,,0.00,meteohub,2013-12-07 05:52:00,
2013-12-06 23:57:00,-10.1,-23.3,30.51,West,270,12.0,13.0,51,0.00,,,0.00,meteohub,2013-12-07 05:57:00,